Regional Weather Roundup
Issued by NWS

Home | Current Version | Previous Version | Graphics & Text | Print | Product List | Glossary On
Versions: 1 2 3 4 5 6 7 8 9 10 11 12 13 14 15 16 17 18 19 20 21 22 23 24 25 26 27 28 29 30 31 32 33 34 35 36 37 38 39 40 41 42 43 44 45 46 47 48 49 50
000
ASUS43 KBIS 221410
RWRND

NORTH DAKOTA REGIONAL WEATHER ROUNDUP
NATIONAL WEATHER SERVICE BISMARCK ND
900 AM CDT SUN OCT 22 2017

NOTE: "FAIR" INDICATES FEW OR NO CLOUDS BELOW 12,000 FEET WITH NO
SIGNIFICANT WEATHER AND/OR OBSTRUCTIONS TO VISIBILITY.


NDZ001>003-009>011-017-221500-
NORTHWEST NORTH DAKOTA

CITY           SKY/WX    TMP DP  RH WIND       PRES   REMARKS
WILLISTON      CLEAR     31  25  78 S5        29.74F
MINOT          CLEAR     39  28  64 SW12      29.75R
MINOT AFB      CLEAR     38  28  66 SW10      29.73S
$$

NDZ018>021-031>035-040>046-221500-
SOUTHWEST NORTH DAKOTA

CITY           SKY/WX    TMP DP  RH WIND       PRES   REMARKS
BISMARCK       CLEAR     33  26  75 CALM      29.86S
DICKINSON      CLOUDY    38  20  48 SW16      29.78F
GARRISON         N/A     37  31  78 SW10      29.78F
HETTINGER ARPT CLOUDY    34  21  59 S6        29.86F
$$

NDZ004>008-012>016-024-026-027-054-221500-
NORTHEAST NORTH DAKOTA

CITY           SKY/WX    TMP DP  RH WIND       PRES   REMARKS
GRAND FORKS    CLEAR     43  34  70 SW14      29.80R
GRND FRKS AFB  CLEAR     42  31  65 SW13      29.80R
DEVILS LAKE    CLEAR     40  33  76 SW12      29.79R
$$

NDZ022-023-025-028>030-036>039-047>053-221500-
SOUTHEAST NORTH DAKOTA

CITY           SKY/WX    TMP DP  RH WIND       PRES   REMARKS
FARGO          CLEAR     41  34  76 SW10      29.88R
JAMESTOWN      CLEAR     39  29  67 SW12      29.86R
$$




USA.gov is the U.S. government's official web portal to all federal, state and local government web resources and services.